星链-3740 (STARLINK-3740 )

导读

STARLINK-3740是美国太空探索技术公司SpaceX星链星座的一员,于2022年4月21日发射升空。星链项目旨在构建全球卫星互联网星座,为全球偏远地区及网络不发达区域提供高速互联网接入服务,该卫星加入星座后,进一步拓展了星链网络的覆盖范围与服务能力。

基本信息
目录编号:
52265
目录名称:
STARLINK-3740
国际标识:
2022-041E
轨道中心:
EARTH
卫星名称:
星链-3740
卫星全名:
星链-3740 (STARLINK-3740 )
卫星状态:
在轨 (已飞行1518 天)
发射日期:
2022-04-21 UTC
国别 :
美国 (US)
星等 :
--
轨道信息
数据来源 国际轨道数据 AOE轨道数据
星历时间 2026-06-17T04:46:58+0800
18小时前
查看轨道信息
2026-06-16T17:00:00+0800
1天前
查看轨道信息
半长轴 6917.89km 6917.899km
偏心率 0.0001275 0.0001232
轨道倾角 53.160° 53.158°
近地点辐角 88.864° 78.623°
升交点赤经 23.806° 26.012°
平近点角 271.250° 133.253°
近地点 538.87km 538.909km
远地点 540.636km 540.615km
周期 95.438分钟 95.438分钟
每日圈数 15.088369 15.088341
详细信息
固有亮度:
5
最大亮度:
2.5
卫星平台:
Starlink v1.5
覆盖范围:
全球
运营商:
太空探索技术公司
运营商所在国:
美国
制造商(研发单位):
太空探索技术公司
制造商所在国:
美国
使用方式:
暂无
卫星简介
星链(Starlink)计划是由太空探索技术公司(SpaceX)提出的一个巨型低轨卫星互联网星座项目,计划在2019年至2024年间在太空搭建由约1.2万颗卫星组成的“星链”网络,其中1584颗将部署在地球上空550千米处的近地轨道,并从2020年开始工作。该卫星仍在工作。
2D轨道图
3D轨道图
轨道高度分析图
轨道倾角分析图
轨道综合分析图
查看轨道综合分析图